{"data":{"norad_id":68700,"epoch":"2026-05-25T04:00:03.998880Z","epoch_age_seconds":50726,"freshness":"FRESH","line1":"1 68700U 26081B   26145.16671295 -.02142142  00000+0 -61300-1 0  9991","line2":"2 68700  53.1591  39.2357 0001216 101.7398   6.5315 15.38711174  5907","mean_motion":15.38711174,"eccentricity":0.0001216,"inclination_deg":53.1591,"raan_deg":39.2357,"arg_perigee_deg":101.7398,"mean_anomaly_deg":6.5315,"bstar":-0.0613,"rev_number":590,"period_min":93.584814637864,"perigee_km":449.08915818419,"apogee_km":450.74974151279,"semimajor_km":6828.0564498485,"source":"CELESTRAK","updated_at":"2026-05-25T13:38:21.997529Z"}}